Dodge City, KS

2:17 AM CDT on April 30, 2017 (GMT -0500)
Dodge City Regional

Weather History for KDDC - December, 2012

Change the Weather History Date:

Monday, December 17, 2012

  Actual Average Record
Temperature  
Mean Temperature 40 °F -  
Max Temperature 54 °F 47 °F 79 °F (1939)
Min Temperature 27 °F 21 °F -5 °F (1902)
Degree Days  
Heating Degree Days 24    
Moisture  
Dew Point 27 °F    
Average Humidity 75    
Maximum Humidity 100    
Minimum Humidity 21    
Precipitation  
Precipitation 0.00 in - - ()
Sea Level Pressure  
Sea Level Pressure 29.77 in    
Wind  
Wind Speed 9 mph (WSW)    
Max Wind Speed 22 mph    
Max Gust Speed 31 mph    
Visibility 6 miles    
Events Fog    
Averages and records for this station are not official NWS values.
T = Trace of Precipitation, MM = Missing Value Source: NWS Daily Summary

Daily Weather History Graph

Daily Weather History Graph

Search for Another Location

Airport or City:

Trip Planner

Search our weather history database for the weather conditions in past years. The results will help you decide how hot, cold, wet, or windy it might be!

Date:

Astronomy

Dec. 17, 2012 Rise Set
Actual Time 7:49 AM CST 5:23 PM CST
Civil Twilight 7:20 AM CST 5:52 PM CST
Nautical Twilight 6:47 AM CST 6:25 PM CST
Astronomical Twilight 6:15 AM CST 6:57 PM CST
Moon 11:03 AM CST (12/17) 10:41 PM CST (12/17)
Length of Visible Light 10h 32m
Length of Day
9h 33m
Waxing Crescent, 25% of the Moon is Illuminated
Dec 17
Waxing Crescent
Dec 19
First Quarter
Dec 28
Full
Jan 4
Last Quarter
Jan 11
New

Hourly Weather History & Observations

Time (CST) Temp. Windchill Dew Point Humidity Pressure Visibility Wind Dir Wind Speed Gust Speed Precip Events Conditions
12:52 AM 34.0 °F 27.2 °F 32.0 °F 92% 29.85 in 7.0 mi WSW 8.1 mph - N/A   Overcast
1:25 AM 33.8 °F 28.6 °F 30.2 °F 87% 29.79 in 4.0 mi WSW 5.8 mph - N/A   Mostly Cloudy
1:35 AM 33.8 °F 27.7 °F 30.2 °F 87% 29.79 in 4.0 mi WSW 6.9 mph - N/A   Mostly Cloudy
1:42 AM 33.8 °F 27.0 °F 30.2 °F 87% 29.79 in 1.8 mi WSW 8.1 mph - N/A   Mostly Cloudy
1:52 AM 33.1 °F 26.9 °F 30.9 °F 92% 29.81 in 0.8 mi SW 6.9 mph - N/A   Overcast
2:01 AM 33.8 °F 26.4 °F 30.2 °F 87% 29.79 in 0.5 mi WSW 9.2 mph - N/A Fog Fog
2:21 AM 33.8 °F 27.0 °F 30.2 °F 87% 29.79 in 0.8 mi West 8.1 mph - N/A   Mist
2:29 AM 32.0 °F 25.6 °F 30.2 °F 93% 29.79 in 1.0 mi West 6.9 mph - N/A   Mist
2:33 AM 32.0 °F 26.4 °F 30.2 °F 93% 29.79 in 0.8 mi West 5.8 mph - N/A   Mist
2:39 AM 30.2 °F 24.3 °F 30.2 °F 100% 29.79 in 0.2 mi West 5.8 mph - N/A Fog Light Freezing Fog
2:52 AM 32.0 °F 27.5 °F 30.0 °F 92% 29.82 in 0.2 mi West 4.6 mph - N/A Fog Fog
3:13 AM 30.2 °F 26.7 °F 30.2 °F 100% 29.80 in 0.2 mi WNW 3.5 mph - N/A Fog Light Freezing Fog
3:24 AM 30.2 °F 23.4 °F 28.4 °F 93% 29.80 in 0.2 mi West 6.9 mph - N/A Fog Light Freezing Fog
3:48 AM 30.2 °F 24.3 °F 28.4 °F 93% 29.80 in 0.2 mi West 5.8 mph - N/A Fog Light Freezing Fog
3:52 AM 30.0 °F 26.5 °F 28.9 °F 96% 29.83 in 0.5 mi SW 3.5 mph - N/A Fog Light Freezing Fog
4:20 AM 30.2 °F 23.4 °F 28.4 °F 93% 29.80 in 0.2 mi SW 6.9 mph - N/A Fog Light Freezing Fog
4:42 AM 30.2 °F 22.6 °F 28.4 °F 93% 29.79 in 0.5 mi West 8.1 mph - N/A Fog Light Freezing Fog
4:52 AM 30.0 °F 23.2 °F 28.0 °F 92% 29.83 in 0.5 mi West 6.9 mph - N/A Fog Light Freezing Fog
5:07 AM 28.4 °F 19.7 °F 28.4 °F 100% 29.79 in 1.0 mi West 9.2 mph - N/A   Mist
5:14 AM 28.4 °F 19.7 °F 28.4 °F 100% 29.79 in 2.0 mi West 9.2 mph - N/A   Mostly Cloudy
5:23 AM 28.4 °F 20.4 °F 26.6 °F 93% 29.79 in 4.0 mi West 8.1 mph - N/A   Mostly Cloudy
5:33 AM 28.4 °F 20.4 °F 26.6 °F 93% 29.79 in 2.5 mi West 8.1 mph - N/A   Scattered Clouds
5:41 AM 28.4 °F 20.4 °F 26.6 °F 93% 29.80 in 6.0 mi West 8.1 mph - N/A   Partly Cloudy
5:52 AM 28.0 °F 20.8 °F 26.1 °F 92% 29.84 in 8.0 mi West 6.9 mph - N/A   Partly Cloudy
6:52 AM 28.0 °F 19.3 °F 26.1 °F 92% 29.86 in 9.0 mi West 9.2 mph - N/A   Clear
7:52 AM 27.0 °F 16.1 °F 24.1 °F 89% 29.86 in 8.0 mi WSW 12.7 mph - N/A   Clear
8:52 AM 28.9 °F 20.4 °F 26.1 °F 89% 29.86 in 7.0 mi WSW 9.2 mph - N/A   Clear
9:52 AM 32.0 °F 24.8 °F 28.9 °F 88% 29.85 in 9.0 mi WSW 8.1 mph - N/A   Clear
10:52 AM 39.0 °F 33.4 °F 32.0 °F 76% 29.83 in 10.0 mi SW 8.1 mph - N/A   Clear
11:52 AM 46.9 °F - 32.0 °F 56% 29.78 in 10.0 mi SW 17.3 mph - N/A   Clear
12:52 PM 50.0 °F - 30.9 °F 48% 29.72 in 10.0 mi SW 20.7 mph - N/A   Clear
1:52 PM 52.0 °F - 28.0 °F 40% 29.70 in 10.0 mi SW 21.9 mph 31.1 mph N/A   Clear
2:52 PM 53.1 °F - 25.0 °F 34% 29.67 in 10.0 mi SW 17.3 mph 26.5 mph N/A   Clear
3:52 PM 53.1 °F - 24.1 °F 32% 29.65 in 10.0 mi SW 19.6 mph 24.2 mph N/A   Clear
6:52 PM 42.1 °F 35.7 °F 24.1 °F 49% 29.68 in 10.0 mi SSW 11.5 mph - N/A   Clear
7:52 PM 41.0 °F 34.3 °F 23.0 °F 49% 29.68 in 10.0 mi SSW 11.5 mph - N/A   Clear
8:52 PM 41.0 °F 33.9 °F 21.9 °F 47% 29.66 in 10.0 mi SSW 12.7 mph - N/A   Clear
9:52 PM 42.1 °F 34.9 °F 21.9 °F 45% 29.65 in 10.0 mi SW 13.8 mph 23.0 mph N/A   Clear
10:52 PM 39.9 °F 32.1 °F 21.9 °F 49% 29.64 in 10.0 mi SW 13.8 mph - N/A   Clear
11:52 PM 37.0 °F 28.9 °F 21.9 °F 54% 29.64 in 10.0 mi SW 12.7 mph - N/A   Clear